Starlink 32646

operational
NORAD ID: 62307 Int'l Des: 2024-239 Owner: SPXS Country: US Constellation: starlink
LEOCIRCULAR

关于 Starlink 32646

正在加载描述...

实时位置

正在加载3D地球...

即将过境

高度历史

Altitude vs Time

uPlot chart will show altitude changes over time

两行轨道根数

1 62307U 24239G 25260.91084132 .00052759 00000-0 13186-2 0 9990
2 62307 53.1585 265.5992 0001260 107.9549 252.1593 15.39649436 43081
Epoch: Sep 17, 2025 • Age: 12 hours

当前状态

高度 447.2 km
速度 7.65 km/s
星下点 23.68°N, 74.5°W
发射日期 Dec 13, 2024
运行时间 0.7 years
类型 internet

技术详情

分类 Payload
质量 730.00 kg
干质量 700.00 kg
总质量 730.00 kg
长度 0.30 m
直径 4.10 m
跨度 29.00 m
形状 Box + pan
制造商 SPXS
平台类型 Starlink V2M
阶段状态 In Orbit
所有者/国家 SPXS/US

大型星座

Loading constellations...